カタログに戻る

STARLINK-35869

運用中通信VLEO
NORAD 66353·PAYLOAD·🇺🇸 United States

打ち上げ Nov 6, 2025 から Vandenberg Space Force Base

Loading…

次のパス (今後24時間)

TLE

最新Source: CelesTrak SupGP

元期: Sep 14, 2026, 23:12 UTC

1 66353C 25254F   26257.96715278  .00032909  00000+0  97252-3 0  2575
2 66353  53.1577  71.3906 0001189  83.8488 200.0913 15.34366899    17

AllMySatでSTARLINK-35869をリアルタイム追跡

Download on the App Store